TimeCDT,TemperatureF,Dew PointF,Humidity,Sea Level PressureIn,VisibilityMPH,Wind Direction,Wind SpeedMPH,Gust SpeedMPH,PrecipitationIn,Events,Conditions,WindDirDegrees,DateUTC
12:52 AM,64.9,57.9,78,30.15,10.0,East,5.8,-,N/A,,Clear,90,2013-08-24 05:52:00
1:52 AM,63.0,57.0,81,30.15,10.0,East,8.1,-,N/A,,Clear,90,2013-08-24 06:52:00
2:52 AM,64.0,55.9,75,30.16,10.0,East,5.8,-,N/A,,Clear,90,2013-08-24 07:52:00
3:52 AM,63.0,55.0,75,30.17,10.0,East,5.8,-,N/A,,Clear,80,2013-08-24 08:52:00
4:52 AM,62.1,55.0,78,30.18,10.0,East,5.8,-,N/A,,Clear,90,2013-08-24 09:52:00
5:52 AM,61.0,55.0,81,30.19,10.0,East,5.8,-,N/A,,Clear,90,2013-08-24 10:52:00
6:52 AM,61.0,55.9,83,30.20,10.0,East,5.8,-,N/A,,Clear,90,2013-08-24 11:52:00
7:52 AM,64.9,57.0,75,30.22,10.0,East,6.9,-,N/A,,Clear,90,2013-08-24 12:52:00
8:52 AM,70.0,60.1,71,30.23,10.0,East,4.6,-,N/A,,Clear,100,2013-08-24 13:52:00
9:52 AM,75.9,64.0,67,30.21,10.0,SSE,8.1,-,N/A,,Clear,150,2013-08-24 14:52:00
10:52 AM,80.1,66.0,62,30.22,10.0,South,5.8,-,N/A,,Clear,170,2013-08-24 15:52:00
11:52 AM,82.0,66.0,58,30.21,10.0,South,5.8,-,N/A,,Clear,180,2013-08-24 16:52:00
12:52 PM,84.9,66.9,55,30.19,10.0,SE,8.1,-,N/A,,Clear,140,2013-08-24 17:52:00
1:52 PM,84.9,66.9,55,30.18,10.0,South,9.2,-,N/A,,Clear,170,2013-08-24 18:52:00
2:52 PM,86.0,66.9,53,30.17,10.0,SSE,8.1,-,N/A,,Clear,160,2013-08-24 19:52:00
3:52 PM,86.0,69.1,57,30.15,10.0,SSE,8.1,-,N/A,,Partly Cloudy,160,2013-08-24 20:52:00
4:52 PM,86.0,68.0,55,30.14,10.0,SE,8.1,-,N/A,,Partly Cloudy,140,2013-08-24 21:52:00
5:52 PM,84.9,68.0,57,30.14,10.0,SE,9.2,-,N/A,,Clear,130,2013-08-24 22:52:00
6:52 PM,82.0,68.0,62,30.13,10.0,SSE,4.6,-,N/A,,Clear,150,2013-08-24 23:52:00
7:52 PM,77.0,69.1,76,30.14,10.0,SE,5.8,-,N/A,,Clear,130,2013-08-25 00:52:00
8:52 PM,75.9,68.0,76,30.15,10.0,SE,4.6,-,N/A,,Clear,130,2013-08-25 01:52:00
9:52 PM,75.0,68.0,79,30.16,10.0,SSE,3.5,-,N/A,,Clear,150,2013-08-25 02:52:00
10:52 PM,73.9,68.0,82,30.16,10.0,SSE,9.2,-,N/A,,Clear,150,2013-08-25 03:52:00
11:52 PM,73.0,66.9,81,30.16,9.0,South,4.6,-,N/A,,Clear,170,2013-08-25 04:52:00